Location: Gälforsberget
(66.6500°N, 22.4167°E)
Time: 11:51:17
(UTC+00:00)

ARIANE 6 FM1 Upper Stage - Pass Details

Date: 11 April 2026
Orbit: 526 x 602 km, 62.0° (Epoch: 10 May)

Event Time Altitude Azimuth Distance (km) Brightness Sun altitude
Rises 21:37:57 0° 255° (WSW) 2,701 6.1 -14.1°
Reaches altitude 10° 21:40:14 10° 249° (WSW) 1,800 5.2 -14.2°
Maximum altitude 21:44:04 43° 177° (S) 755 2.8 -14.3°
Drops below altitude 10° 21:47:51 10° 106° (ESE) 1,779 5.0 -14.4°
Sets 21:50:06 0° 99° (E) 2,667 5.9 -14.4°
